Location: *
(28.3744°N, 81.5492°W)
Time: 02:54:02
(UTC+00:00)

Sich 1 - Pass Details

Date: 15 June 2025
Orbit: 574 x 602 km, 82.5° (Epoch: 11 July)

Event Time Altitude Azimuth Distance (km) Brightness Sun altitude
Rises 01:56:06 0° 346° (NNW) 2,784 7.3 -17.6°
Reaches altitude 10° 01:58:21 10° 340° (NNW) 1,884 6.4 -18.0°
Maximum altitude 02:02:18 45° 268° (W) 793 3.9 -18.6°
Enters shadow 02:05:26 15° 199° (SSW) 1,565 4.9 -19.1°
